[[{"header":{"parameterUnit":"m.s-1","parameterCategory":1,"la1":30.2991,"la2":30.254,"lo1":-89.0895,"lo2":-89.0444,"dy":0.0017,"dx":0.0017,"nx":28,"ny":28,"refTime":"2023-10-06T03:00:00:Z","depth":0,"parameterNumber":2,"parameterNumberName":"U-component_of_WINDS"},"data":[0,0,0,0,0,0,0,0,0,0,0,0,0,0,0,0,0,0,0,0,0,0,0,0,0,0,0,0,0,0,0,0,0,0,0,0,0,0,0,0,0,0,0,0,0,0,0,0,0,0,0,0,0,0,0,0,0,0,-0.8942,-0.8943,0,-0.9041,-0.9042,-0.9043,-0.9029,-0.9027,-0.9025,-0.9024,-0.9125,-0.913,-0.9134,0,0,0,0,0,0,0,0,0,0,0,0,0,-0.874,-0.8744,-0.8942,-0.8944,-0.8945,-0.9041,-0.9042,-0.9044,-0.9029,-0.9027,-0.9025,-0.9023,-0.9124,-0.9129,-0.9134,0,0,0,0,0,0,0,0,0,0,0,0,0,-0.8832,-0.8745,-0.8942,-0.8949,-0.8951,-0.9041,-0.9042,-0.9044,-0.9029,-0.9027,-0.9024,-0.9022,-0.9122,-0.9129,-0.9135,-0.9224,0,0,-0.9154,-0.9157,0,0,0,0,0,0,0,0,-0.8827,-0.884,-0.8947,-0.8949,-0.8951,-0.902,-0.9008,-0.9105,-0.903,-0.9,-0.9024,-0.9021,-0.9092,-0.9101,-0.9125,-0.9229,-0.9234,-0.9155,-0.9159,-0.9162,-0.9163,0,0,0,0,0,0,0,-0.8821,-0.8836,-0.8981,-0.8948,-0.8951,-0.8947,-0.8957,-0.9027,-0.9059,-0.9002,-0.9001,-0.9013,-0.9093,-0.9119,-0.9127,-0.9235,-0.9155,-0.9161,-0.9164,-0.9167,-0.9417,-0.942,0,0,0,0,0,0,-0.8813,-0.883,-0.8978,-0.8984,-0.8882,-0.8953,-0.8964,-0.9,-0.9058,-0.9064,-0.9015,-0.9012,-0.9109,-0.912,-0.9131,-0.924,-0.9162,-0.9168,-0.9171,-0.9414,-0.9418,-0.9421,0,0,0,0,0,0,-0.8808,-0.8826,-0.8974,-0.8907,-0.8926,-0.8959,-0.8999,-0.9004,-0.903,-0.9068,-0.9074,-0.9036,-0.9108,-0.9122,-0.9201,-0.9243,-0.917,-0.9176,-0.9411,-0.9415,-0.9419,-0.9459,0,0,0,0,0,0,-0.8803,-0.8825,-0.8859,-0.8908,-0.8929,-0.9043,-0.9002,-0.9007,-0.9041,-0.9038,-0.9089,-0.9095,-0.9107,-0.9192,-0.9208,-0.9251,-0.9181,-0.9407,-0.9413,-0.9418,-0.9454,-0.9464,-0.9472,0,0,0,0,0,-0.8795,-0.8867,-0.8861,-0.8879,-0.8974,-0.9046,-0.9058,-0.907,-0.9044,-0.9079,-0.9103,-0.9093,-0.9235,-0.92,-0.9218,-0.9264,-0.9405,-0.9411,-0.9417,-0.945,-0.9462,-0.9472,0,0,0,0,0,0,-0.8823,-0.8873,-0.8868,-0.8957,-0.8997,-0.9043,-0.9088,-0.9083,-0.9131,-0.9127,-0.9139,-0.9151,-0.9231,-0.9255,-0.9214,-0.9353,-0.9316,-0.9327,-0.9335,-0.9347,-0.9356,-0.935,-0.9187,0,0,0,0,0,-0.8839,-0.8893,-0.8934,-0.9009,-0.903,-0.9055,-0.9087,-0.9093,-0.9135,-0.9152,-0.9182,-0.9224,-0.9278,-0.9313,-0.9365,-0.9456,-0.9467,-0.9496,-0.9505,-0.9513,-0.9522,-0.9572,-0.9586,-0.9441,-0.9441,-0.9441,0,0,-0.8873,-0.8908,-0.8942,-0.9016,-0.9047,-0.9104,-0.907,-0.9131,-0.9173,-0.9162,-0.9239,-0.9262,-0.9309,-0.9394,-0.9434,-0.9417,-0.9564,-0.9521,-0.9526,-0.9532,-0.958,-0.9594,-0.9606,-0.9446,-0.9445,-0.9444,0,0,-0.8965,-0.8996,-0.9062,-0.9094,-0.9143,-0.9159,-0.9175,-0.9221,-0.9236,-0.9314,-0.9306,-0.9355,-0.9448,-0.9482,-0.9511,-0.9614,-0.9606,-0.963,-0.9679,-0.9728,-0.9739,-0.9749,-0.9787,-0.98,-0.9638,-0.9639,-0.9639,0,-0.9003,-0.9087,-0.9097,-0.9159,-0.9192,-0.9183,-0.9249,-0.928,-0.9343,-0.9366,-0.9345,-0.9461,-0.9492,-0.9585,-0.961,-0.9633,-0.9652,-0.9626,-0.9736,-0.9747,-0.9756,-0.9792,-0.9806,-0.9641,-0.9641,-0.9641,-0.964,0,-0.9131,-0.9189,-0.9236,-0.9297,-0.9335,-0.9399,-0.9418,-0.9455,-0.9456,-0.9474,-0.9552,-0.9589,-0.9648,-0.967,-0.9672,-0.9763,-0.9751,-0.9733,-0.9698,-0.9773,-0.9807,-0.9821,-0.9645,-0.9644,-0.9643,-0.9643,0,0,-0.9246,-0.9309,-0.9327,-0.9354,-0.9405,-0.9451,-0.9513,-0.9571,-0.9603,-0.9645,-0.9699,-0.9776,-0.9759,-0.9793,-0.9798,-0.984,-0.992,-0.9817,-0.9819,-0.9836,-1.0024,-1.0038,-1.0054,-0.9914,-0.9917,-0.9919,-1.002,0,-0.9344,-0.9456,-0.9465,-0.9566,-0.962,-0.9611,-0.9666,-0.9703,-0.9721,-0.9769,-0.9789,-0.9844,-0.9817,-0.9837,-0.9879,-0.9902,-0.9958,-0.9894,-0.9965,-0.9967,-0.9956,-1.0072,-1.0088,-1.0182,-1.0033,-1.0035,-1.0037,0,-0.9474,-0.9521,-0.9627,-0.967,-0.9693,-0.9742,-0.9795,-0.9841,-0.9882,-0.9892,-0.9928,-0.9928,-0.9992,-0.9951,-1.004,-0.9996,-1.0025,-1.004,-1.0044,-1.0053,-1.0008,-1.0085,-1.0212,-1.0227,-1.0058,-1.0056,-1.0055,0,-0.9549,-0.9638,-0.9713,-0.9736,-0.9788,-0.9823,-0.9846,-0.9885,-0.9918,-0.9964,-0.9986,-1.0038,-1.0067,-1.0107,-1.0121,-1.009,-1.0209,-1.0169,-1.022,-1.0219,-1.0247,-1.0246,-1.0382,-1.0262,-1.0262,-1.0262,-1.0262,0,-0.9659,-0.9725,-0.9747,-0.9793,-0.9866,-0.9875,-0.9947,-0.9968,-1.0003,-1.0052,-1.0047,-1.0094,-1.0107,-1.0156,-1.0167,-1.0239,-1.0252,-1.0262,-1.0264,-1.0264,-1.0263,-1.0285,-1.0279,-1.0266,-1.0265,-1.0264,-1.0264,0,-0.9757,-0.9774,-0.9855,-0.9897,-0.9909,-0.9961,-0.9997,-1.0041,-1.0057,-1.012,-1.0135,-1.0161,-1.0218,-1.0234,-1.0303,-1.031,-1.0395,-1.039,-1.0381,-1.0382,-1.0432,-1.0428,-1.0589,-1.0611,-1.0475,-1.0476,-1.0477,0,-0.9827,-0.9878,-0.9924,-0.9957,-0.9982,-1.0035,-1.0069,-1.0079,-1.0114,-1.0165,-1.0203,-1.0259,-1.0305,-1.0397,-1.0421,-1.0474,-1.0471,-1.0524,-1.0479,-1.0477,-1.0474,-1.0472,-1.0477,-1.0533,-1.0535,-1.0536,-1.0537,0,-0.9951,-0.9956,-1.0006,-1.0058,-1.0098,-1.0139,-1.0179,-1.0206,-1.0222,-1.0261,-1.032,-1.0355,-1.0425,-1.0481,-1.0534,-1.0557,-1.055,-1.055,-1.0565,-1.0566,-1.0559,-1.0565,-1.0407,-1.0547,-1.0546,-1.0545,-1.0545,-1.0544,-1.0038,-1.0082,-1.0122,-1.0177,-1.0207,-1.0244,-1.0288,-1.0308,-1.0357,-1.0415,-1.0417,-1.0481,-1.052,-1.0589,-1.0615,-1.0665,-1.0649,-1.067,-1.0676,-1.0681,-1.0686,-1.0549,-1.0674,-1.0674,-1.0673,-1.0673,-1.0673,0,-1.0163,-1.0187,-1.0237,-1.0293,-1.0335,-1.0323,-1.0366,-1.0403,-1.0459,-1.0495,-1.054,-1.0607,-1.0661,-1.0688,-1.0742,-1.0776,-1.0774,-1.079,-1.0789,-1.0794,-1.0696,-1.0679,-1.0791,-1.0791,-1.079,-1.079,-1.079,-1.079,-1.0233,-1.0307,-1.0317,-1.0406,-1.0429,-1.0492,-1.0517,-1.0551,-1.058,-1.0655,-1.07,-1.0717,-1.075,-1.0805,-1.0854,-1.086,-1.0881,-1.0899,-1.0904,-1.0813,-1.0801,-1.079,-1.0774,-1.0903,-1.0903,-1.0998,-1.0999,-1.0999]},{"header":{"parameterUnit":"m.s-1","parameterCategory":1,"la1":30.2991,"la2":30.254,"lo1":-89.0895,"lo2":-89.0444,"dy":0.0017,"dx":0.0017,"nx":28,"ny":28,"refTime":"2023-10-06T03:00:00:Z","depth":0,"parameterNumber":3,"parameterNumberName":"V-component_of_WINDS"},"data":[0,0,0,0,0,0,0,0,0,0,0,0,0,0,0,0,0,0,0,0,0,0,0,0,0,0,0,0,0,0,0,0,0,0,0,0,0,0,0,0,0,0,0,0,0,0,0,0,0,0,0,0,0,0,0,0,0,0,-7.5044,-7.5045,0,-7.5209,-7.5211,-7.5212,-7.5098,-7.5093,-7.5088,-7.5083,-7.5245,-7.5254,-7.5263,0,0,0,0,0,0,0,0,0,0,0,0,0,-7.4623,-7.4631,-7.5043,-7.5045,-7.5048,-7.5208,-7.5211,-7.5213,-7.5099,-7.5093,-7.5087,-7.5081,-7.5242,-7.5253,-7.5264,0,0,0,0,0,0,0,0,0,0,0,0,0,-7.4798,-7.4634,-7.5043,-7.501,-7.5009,-7.5208,-7.5211,-7.5213,-7.5101,-7.5093,-7.5085,-7.5078,-7.5239,-7.5252,-7.5266,-7.5504,0,0,-7.5307,-7.5313,0,0,0,0,0,0,0,0,-7.4789,-7.4814,-7.5013,-7.5013,-7.5012,-7.5125,-7.5122,-7.5311,-7.5102,-7.5066,-7.5083,-7.5074,-7.5211,-7.5227,-7.5274,-7.5511,-7.5518,-7.5309,-7.5317,-7.5323,-7.5327,0,0,0,0,0,0,0,-7.4777,-7.4806,-7.5108,-7.5016,-7.5015,-7.4985,-7.5002,-7.5157,-7.5179,-7.5068,-7.506,-7.5082,-7.5209,-7.5261,-7.5277,-7.5521,-7.5308,-7.532,-7.5329,-7.5334,-7.5961,-7.5969,0,0,0,0,0,0,-7.4768,-7.4797,-7.5103,-7.5113,-7.4879,-7.4999,-7.5017,-7.5096,-7.5177,-7.5182,-7.5088,-7.5076,-7.5242,-7.5261,-7.5282,-7.5567,-7.5323,-7.5335,-7.5343,-7.5952,-7.5963,-7.5972,0,0,0,0,0,0,-7.476,-7.4797,-7.5097,-7.4953,-7.4989,-7.5015,-7.5104,-7.5104,-7.5156,-7.5193,-7.5195,-7.5138,-7.5237,-7.5263,-7.545,-7.5571,-7.5341,-7.5354,-7.5942,-7.5956,-7.5967,-7.6138,0,0,0,0,0,0,-7.4748,-7.4794,-7.4887,-7.4956,-7.4997,-7.5264,-7.5112,-7.5113,-7.5181,-7.5166,-7.524,-7.5245,-7.5233,-7.543,-7.5464,-7.5586,-7.5365,-7.5932,-7.5948,-7.5963,-7.6122,-7.6155,-7.6184,0,0,0,0,0,-7.4733,-7.4926,-7.4892,-7.4929,-7.5114,-7.5271,-7.5294,-7.5279,-7.5191,-7.5283,-7.5306,-7.5242,-7.5552,-7.545,-7.5487,-7.5615,-7.5924,-7.5944,-7.5962,-7.6108,-7.6149,-7.6183,0,0,0,0,0,0,-7.4868,-7.4935,-7.4897,-7.5119,-7.5191,-7.5252,-7.5368,-7.5322,-7.5418,-7.5401,-7.5374,-7.5392,-7.5588,-7.5619,-7.5505,-7.5849,-7.5724,-7.5751,-7.5822,-7.5861,-7.5892,-7.588,-7.5376,0,0,0,0,0,-7.4924,-7.5049,-7.5099,-7.529,-7.5328,-7.5342,-7.541,-7.5392,-7.5464,-7.5493,-7.553,-7.5601,-7.5714,-7.5789,-7.5895,-7.6125,-7.6139,-7.6231,-7.6262,-7.6287,-7.6311,-7.6436,-7.6477,-7.6034,-7.6034,-7.6034,0,0,-7.504,-7.5092,-7.5172,-7.5318,-7.5372,-7.55,-7.5368,-7.5509,-7.5603,-7.5513,-7.5693,-7.5723,-7.58,-7.601,-7.6104,-7.6042,-7.6437,-7.6312,-7.6331,-7.6342,-7.646,-7.6502,-7.6539,-7.6047,-7.6045,-7.6043,0,0,-7.5317,-7.5369,-7.5534,-7.5591,-7.5674,-7.5682,-7.5722,-7.5791,-7.5808,-7.5988,-7.5924,-7.6034,-7.623,-7.6287,-7.6342,-7.6642,-7.6587,-7.6677,-7.6839,-7.696,-7.6995,-7.7026,-7.7133,-7.7172,-7.67,-7.6701,-7.6701,0,-7.545,-7.5643,-7.5624,-7.5771,-7.5837,-7.5764,-7.593,-7.5985,-7.6098,-7.6145,-7.6074,-7.6319,-7.6365,-7.6588,-7.6661,-7.6708,-7.6751,-7.6669,-7.6992,-7.7023,-7.7051,-7.7153,-7.7194,-7.6711,-7.671,-7.6709,-7.6708,0,-7.5802,-7.5937,-7.606,-7.6174,-7.6254,-7.6409,-7.6412,-7.6495,-7.647,-7.6485,-7.6669,-7.6722,-7.6838,-7.6889,-7.6865,-7.7109,-7.7068,-7.6996,-7.6869,-7.7104,-7.72,-7.7239,-7.6726,-7.6723,-7.672,-7.6717,0,0,-7.6169,-7.6272,-7.6318,-7.6369,-7.6456,-7.6558,-7.671,-7.6826,-7.6897,-7.6977,-7.7103,-7.727,-7.7204,-7.7267,-7.7248,-7.7355,-7.7589,-7.7268,-7.727,-7.7327,-7.7862,-7.7917,-7.7963,-7.7553,-7.756,-7.7566,-7.7856,0,-7.6452,-7.672,-7.6708,-7.6957,-7.7081,-7.7013,-7.7145,-7.7212,-7.723,-7.7335,-7.7353,-7.7473,-7.7376,-7.7414,-7.7516,-7.7539,-7.7696,-7.7518,-7.7668,-7.7674,-7.7653,-7.8013,-7.8071,-7.8342,-7.7893,-7.7899,-7.7904,0,-7.6818,-7.6914,-7.7177,-7.7246,-7.7297,-7.7417,-7.7522,-7.7625,-7.7698,-7.7703,-7.7774,-7.7738,-7.7889,-7.7759,-7.7966,-7.7845,-7.7905,-7.7926,-7.7936,-7.795,-7.7804,-7.8037,-7.8428,-7.847,-7.7962,-7.7957,-7.7953,0,-7.7061,-7.7255,-7.7438,-7.7483,-7.7568,-7.7654,-7.7693,-7.7758,-7.7829,-7.792,-7.7966,-7.8072,-7.8131,-7.8213,-7.8206,-7.8112,-7.8418,-7.8286,-7.8425,-7.8426,-7.8494,-7.849,-7.8901,-7.8531,-7.8531,-7.853,-7.8529,0,-7.7379,-7.7542,-7.7548,-7.7661,-7.7842,-7.7825,-7.8003,-7.8033,-7.8092,-7.8208,-7.8154,-7.8263,-7.8247,-7.8355,-7.835,-7.8523,-7.8549,-7.8557,-7.8554,-7.8563,-7.8562,-7.8603,-7.8584,-7.8541,-7.8538,-7.8536,-7.8534,0,-7.7681,-7.7691,-7.7886,-7.7952,-7.7972,-7.8102,-7.8157,-7.8262,-7.8276,-7.8423,-7.8456,-7.8476,-7.8602,-7.8603,-7.8745,-7.8741,-7.8953,-7.8928,-7.893,-7.8926,-7.9065,-7.9053,-7.9518,-7.9578,-7.9169,-7.9173,-7.9176,0,-7.7884,-7.8009,-7.8088,-7.8163,-7.8208,-7.8329,-7.8402,-7.8389,-7.8466,-7.856,-7.8654,-7.8775,-7.8871,-7.9074,-7.91,-7.9208,-7.9186,-7.9341,-7.9202,-7.9207,-7.9189,-7.9183,-7.9195,-7.9369,-7.9374,-7.9377,-7.938,0,-7.8243,-7.8242,-7.835,-7.8462,-7.8551,-7.8636,-7.8715,-7.8779,-7.8775,-7.8864,-7.8994,-7.9069,-7.9215,-7.9336,-7.9441,-7.9477,-7.9429,-7.9424,-7.9462,-7.9473,-7.947,-7.9475,-7.9006,-7.9414,-7.941,-7.9408,-7.9406,-7.9405,-7.8502,-7.861,-7.8684,-7.8806,-7.8865,-7.8941,-7.9044,-7.9071,-7.9179,-7.93,-7.9285,-7.9429,-7.9497,-7.9634,-7.968,-7.9791,-7.9737,-7.9792,-7.9806,-7.982,-7.9836,-7.9452,-7.981,-7.9809,-7.9808,-7.9807,-7.9806,0,-7.8859,-7.8904,-7.9017,-7.9131,-7.9227,-7.9175,-7.926,-7.9343,-7.9471,-7.9541,-7.9638,-7.9786,-7.9902,-7.9938,-8.005,-8.0132,-8.0112,-8.0162,-8.0156,-8.0166,-7.9878,-7.9834,-8.0176,-8.0176,-8.0176,-8.0176,-8.0176,-8.0176,-7.9057,-7.9238,-7.9246,-7.9454,-7.9496,-7.9639,-7.9693,-7.9761,-7.9817,-7.9986,-8.0084,-8.0107,-8.0163,-8.0279,-8.0383,-8.039,-8.0434,-8.0494,-8.0492,-8.0223,-8.0186,-8.015,-8.0109,-8.0503,-8.0504,-8.077,-8.0773,-8.0775]}]]